sat.trackr.live / text

‹ back to catalog

STARLINK-36184

NORAD 67021 · 2025-293U

PAYLOAD ACTIVE UNKNOWN

§ Identity

Operator
Country
US
Launch date
2025-12-10
Launch site
AFWTR
Launch vehicle
Mass (kg)
RCS (m²)

Purposes: comms

External: N2YO · Heavens-Above · Gunter

§ Orbital elements

Epoch: 2026-05-25T01:14:37.089888Z

Period
96.11 min
Inclination
70.0003°
Eccentricity
0.0003443
Mean motion
14.98360140 rev/d
Perigee alt
569.6 km
Apogee alt
574.4 km
Semi-major
6,950.1 km
B*
1.1717e-3
RAAN
262.0150°
Arg perigee
275.1449°
Mean anomaly
84.9317°
Rev number
2,632

§ Raw data

STARLINK-361841 67021U 25293U   26145.05181817  .00013927  00000+0  11717-2 0  99962 67021  70.0003 262.0150 0003443 275.1449  84.9317 14.98360140 26321

JSON: /api/v1/satellites/67021 · /tle

For live sub-satellite position, see the globe view (requires WebGL).

§ Visibility from observer

Set your observer location to see the next 7 days of passes ≥ 10°. The values pass through the URL so the page stays shareable.

No JS? Fill the form by hand. The geolocation button needs JavaScript.